Powrót do katalogu

GLOBALSTAR M056

AktywnyŁącznośćLEO
NORAD 25945·PAYLOAD·🇺🇸 United States

Wystrzelony Oct 18, 1999 z Baikonur Cosmodrome

Loading…

Następne Przeloty (najbliższe 24 godziny)

TLE

ŚwieżeSource: Space-Track

Epoka: Sep 14, 2026, 09:27 UTC

1 25945U 99058C   26257.39401480 -.00000038  00000-0  57806-3 0  9998
2 25945  51.9971  48.6904 0001142  30.2687 344.5374 12.04789425217376

Śledź GLOBALSTAR M056 w czasie rzeczywistym z AllMySat

Download on the App Store